This is the latest recevied weather packets stored in our database for station/object IZ8QAD-4. If no packets are shown the sender has not sent any weather packets the latest 10 day(s).
| Time | Temp. | Humidity | Pressure | Rain* | Wind** | Luminosity | Snow |
|---|---|---|---|---|---|---|---|
| 1778174202 | 24.44° C | 40% | 963.4 hPa | - | - | - | - |
| 1778172401 | 24.44° C | 40% | 963.3 hPa | - | - | - | - |
| 1778170601 | 23.89° C | 40% | 963.4 hPa | - | - | - | - |
| 1778168801 | 24.44° C | 38% | 963.7 hPa | - | - | - | - |
| 1778167000 | 24.44° C | 37% | 963.8 hPa | - | - | - | - |
| 1778165200 | 24.44° C | 37% | 963.8 hPa | - | - | - | - |
| 1778163399 | 23.89° C | 36% | 964.2 hPa | - | - | - | - |
| 1778161602 | 23.89° C | 36% | 964.4 hPa | - | - | - | - |
| 1778159802 | 23.89° C | 35% | 964.6 hPa | - | - | - | - |
| 1778158002 | 23.89° C | 35% | 965.1 hPa | - | - | - | - |
| 1778156202 | 23.89° C | 35% | 965.3 hPa | - | - | - | - |
| 1778154402 | 23.89° C | 35% | 965.6 hPa | - | - | - | - |
| 1778152602 | 23.89° C | 39% | 965.8 hPa | - | - | - | - |
| 1778150801 | 24.44° C | 49% | 966.2 hPa | - | - | - | - |
| 1778149001 | 23.33° C | 43% | 966.1 hPa | - | - | - | - |
| 1778147897 | 22.78° C | 43% | 966.6 hPa | - | - | - | - |
| 1778147200 | 22.78° C | 40% | 966.3 hPa | - | - | - | - |
| 1778145400 | 22.78° C | 42% | 966.2 hPa | - | - | - | - |
| 1778143599 | 22.78° C | 41% | 966.6 hPa | - | - | - | - |
| 1778141799 | 22.78° C | 43% | 966.6 hPa | - | - | - | - |
| 1778140002 | 22.78° C | 47% | 966.5 hPa | - | - | - | - |
| 1778138201 | 22.78° C | 44% | 966.5 hPa | - | - | - | - |
| 1778136401 | 22.78° C | 41% | 966.4 hPa | - | - | - | - |
| 1778134601 | 23.33° C | 40% | 966.5 hPa | - | - | - | - |
| 1778132801 | 23.33° C | 39% | 966.6 hPa | - | - | - | - |
* Rain since midnight (hover to see other rain measurements)
** Current wind speed in m/s (hover to see current wind gust speed)